Bremerton, WA

11:25 AM PDT on October 14, 2019 (GMT -0700)
Bremerton National

Weather History for KPWT - August, 2019

Change the Weather History Date:

Monday, August 5, 2019

  Actual Average Record
Temperature  
Mean Temperature 71 °F -  
Max Temperature 89 °F 75 °F 96 °F (2012)
Min Temperature 54 °F 50 °F 44 °F (2002)
Cooling Degree Days 6    
Growing Degree Days 21 (Base 50)    
Moisture  
Dew Point 56 °F    
Average Humidity 68    
Maximum Humidity 93    
Minimum Humidity 35    
Precipitation  
Precipitation 0.00 in - - ()
Sea Level Pressure  
Sea Level Pressure 30.05 in    
Wind  
Wind Speed 2 mph (South)    
Max Wind Speed 10 mph    
Max Gust Speed -    
Visibility 10 miles    
Events      
Averages and records for this station are not official NWS values.
T = Trace of Precipitation, MM = Missing Value Source: NWS Daily Summary

Daily Weather History Graph

Daily Weather History Graph

Search for Another Location

Airport or City:

Astronomy

Aug. 05, 2019 Rise Set
Actual Time 5:53 AM PDT 8:39 PM PDT
Civil Twilight 5:18 AM PDT 9:14 PM PDT
Nautical Twilight 4:33 AM PDT 9:59 PM PDT
Astronomical Twilight 3:40 AM PDT 10:51 PM PDT
Moon 11:38 AM PDT (8/5) 11:30 PM PDT (8/5)
Length of Visible Light 15h 56m
Length of Day
14h 45m
Waxing Crescent, 29% of the Moon is Illuminated
Aug 5
Waxing Crescent
Aug 7
First Quarter
Aug 15
Full
Aug 23
Last Quarter
Aug 30
New

Hourly Weather History & Observations

Time (PDT) Temp. Heat Index Dew Point Humidity Pressure Visibility Wind Dir Wind Speed Gust Speed Precip Events Conditions
12:56 AM 57.9 °F - 52.0 °F 81% 30.05 in 10.0 mi Calm Calm - N/A   Clear
1:56 AM 57.0 °F - 52.0 °F 83% 30.05 in 10.0 mi Calm Calm - N/A   Clear
2:56 AM 57.0 °F - 53.1 °F 87% 30.05 in 10.0 mi Calm Calm - N/A   Clear
3:56 AM 55.0 °F - 53.1 °F 93% 30.06 in 10.0 mi Calm Calm - N/A   Clear
4:56 AM 55.0 °F - 52.0 °F 89% 30.07 in 10.0 mi Calm Calm - N/A   Clear
5:56 AM 54.0 °F - 52.0 °F 93% 30.07 in 10.0 mi Calm Calm - N/A   Clear
6:56 AM 57.9 °F - 55.9 °F 93% 30.09 in 10.0 mi South 4.6 mph - N/A   Clear
7:56 AM 62.1 °F - 57.9 °F 86% 30.09 in 10.0 mi South 3.5 mph - N/A   Clear
8:56 AM 66.9 °F - 57.9 °F 73% 30.10 in 10.0 mi South 4.6 mph - N/A   Clear
9:56 AM 70.0 °F - 57.9 °F 65% 30.11 in 10.0 mi Variable 4.6 mph - N/A   Clear
10:56 AM 73.9 °F - 57.0 °F 55% 30.10 in 10.0 mi Variable 3.5 mph - N/A   Clear
11:56 AM 79.0 °F - 57.9 °F 48% 30.09 in 10.0 mi Variable 3.5 mph - N/A   Clear
12:56 PM 84.0 °F 83.8 °F 59.0 °F 43% 30.07 in 10.0 mi Calm Calm - N/A   Clear
1:56 PM 86.0 °F 84.9 °F 57.0 °F 37% 30.05 in 10.0 mi Calm Calm - N/A   Clear
2:56 PM 88.0 °F 86.7 °F 57.0 °F 35% - 8.0 mi North - - N/A   Clear
4:56 PM 86.0 °F 84.9 °F 57.0 °F 37% 30.01 in 10.0 mi ENE 10.4 mph - N/A   Clear
5:56 PM 84.9 °F 83.7 °F 55.9 °F 37% 30.01 in 10.0 mi ENE 8.1 mph - N/A   Clear
6:56 PM 82.9 °F 82.0 °F 55.0 °F 38% 30.00 in 10.0 mi ENE 3.5 mph - N/A   Clear
7:56 PM 73.9 °F - 61.0 °F 64% 30.01 in 10.0 mi SSW 3.5 mph - N/A   Clear
8:56 PM 72.0 °F - 61.0 °F 68% 30.02 in 4.0 mi Calm Calm - N/A   Haze
9:56 PM 66.0 °F - 60.1 °F 81% 30.03 in 10.0 mi SSW 3.5 mph - N/A   Clear
10:56 PM 64.9 °F - 60.1 °F 84% 30.03 in 10.0 mi SSW 4.6 mph - N/A   Clear
11:56 PM 60.1 °F - 57.0 °F 90% 30.04 in 10.0 mi SSW 3.5 mph - N/A   Clear